Powrót do katalogu

FENGYUN 1C DEB

LostPO
NORAD 37425·DEBRIS·🇨🇳 China

Wystrzelony May 10, 1999 z Taiyuan Satellite Launch Center

Loading…

Następne Przeloty (najbliższe 24 godziny)

TLE

NieaktualneSource: Space-Track

Epoka: Mar 8, 2025, 13:43 UTC

1 37425U 99025EGT 25067.57172661  .00002646  00000-0  20458-2 0  9990
2 37425  97.1659 347.6094 0158134 242.9873 244.4237 13.87684346612803

Śledź FENGYUN 1C DEB w czasie rzeczywistym z AllMySat

Download on the App Store